{"data":{"norad_id":68057,"epoch":"2026-05-25T04:21:55.300320Z","epoch_age_seconds":55259,"freshness":"FRESH","line1":"1 68057U 26041T   26145.18189005  .00032713  00000+0  97418-3 0  9996","line2":"2 68057  53.1581  52.8712 0001141  79.1716 280.9415 15.34430109 13120","mean_motion":15.34430109,"eccentricity":0.0001141,"inclination_deg":53.1581,"raan_deg":52.8712,"arg_perigee_deg":79.1716,"mean_anomaly_deg":280.9415,"bstar":0.00097418,"rev_number":1312,"period_min":93.845916575403,"perigee_km":461.83322171653,"apogee_km":463.39428103799,"semimajor_km":6840.7507513773,"source":"CELESTRAK","updated_at":"2026-05-25T13:38:21.814151Z"}}